Fort Meade, MD

11:33 AM EDT on June 22, 2017 (GMT -0400)
Tipton

Weather History for KFME - February, 2013

Change the Weather History Date:

Sunday, February 3, 2013

  Actual Average (KBWI) Record (KBWI)
Temperature  
Mean Temperature 26 °F -  
Max Temperature 33 °F 42 °F 66 °F (1932)
Min Temperature 19 °F 26 °F 4 °F (1961)
Degree Days  
Heating Degree Days 39    
Moisture  
Dew Point 24 °F    
Average Humidity 87    
Maximum Humidity 100    
Minimum Humidity 69    
Precipitation  
Precipitation 0.00 in - - ()
Sea Level Pressure  
Sea Level Pressure 29.93 in    
Wind  
Wind Speed 1 mph (WSW)    
Max Wind Speed 12 mph    
Max Gust Speed 18 mph    
Visibility 8 miles    
Events      
Averages and records for this station are not official NWS values.
T = Trace of Precipitation, MM = Missing Value Source: NWS Daily Summary

Daily Weather History Graph

Daily Weather History Graph

Search for Another Location

Airport or City:

Trip Planner

Search our weather history database for the weather conditions in past years. The results will help you decide how hot, cold, wet, or windy it might be!

Date:

Astronomy

Feb. 03, 2013 Rise Set
Actual Time 7:11 AM EST 5:30 PM EST
Civil Twilight 6:43 AM EST 5:58 PM EST
Nautical Twilight 6:11 AM EST 6:30 PM EST
Astronomical Twilight 5:40 AM EST 7:01 PM EST
Moon 12:36 AM EST (2/3) 11:06 AM EST (2/3)
Length of Visible Light 11h 15m
Length of Day
10h 19m
Waning Gibbous, 49% of the Moon is Illuminated
Feb 3
Waning Gibbous
Feb 10
New
Feb 17
First Quarter
Feb 25
Full
Mar 4
Last Quarter

Hourly Weather History & Observations

Time (EST) Temp. Windchill Dew Point Humidity Pressure Visibility Wind Dir Wind Speed Gust Speed Precip Events Conditions
12:12 AM 26.6 °F - 26.6 °F 100% 30.04 in 5.0 mi Calm Calm - N/A   Overcast
12:33 AM 26.6 °F - 24.8 °F 93% 30.02 in 5.0 mi Calm Calm - N/A   Scattered Clouds
12:54 AM 26.6 °F - 23.0 °F 86% 30.01 in 7.0 mi Calm Calm - N/A   Clear
1:15 AM 24.8 °F - 23.0 °F 93% 30.01 in 7.0 mi Calm Calm - N/A   Clear
1:36 AM 24.8 °F - 23.0 °F 93% 30.01 in 10.0 mi Calm Calm - N/A   Clear
1:57 AM 23.0 °F - 21.2 °F 93% 30.01 in 10.0 mi Calm Calm - N/A   Clear
2:18 AM 23.0 °F - 23.0 °F 100% 29.99 in 7.0 mi Calm Calm - N/A   Mostly Cloudy
2:39 AM 24.8 °F - 23.0 °F 93% 29.99 in 10.0 mi Calm Calm - N/A   Overcast
3:00 AM 23.0 °F - 21.2 °F 93% 29.98 in 7.0 mi Calm Calm - N/A   Scattered Clouds
3:24 AM 23.0 °F - 21.2 °F 93% 29.97 in 10.0 mi Calm Calm - N/A   Clear
3:45 AM 21.2 °F - 21.2 °F 100% 29.96 in 5.0 mi Calm Calm - N/A   Clear
4:06 AM 21.2 °F - 19.4 °F 93% 29.95 in 10.0 mi Calm Calm - N/A   Clear
4:27 AM 21.2 °F - 19.4 °F 93% 29.95 in 7.0 mi Calm Calm - N/A   Clear
4:48 AM 21.2 °F - 19.4 °F 93% 29.95 in 10.0 mi Calm Calm - N/A   Clear
5:09 AM 19.4 °F - 19.4 °F 100% 29.95 in 7.0 mi Calm Calm - N/A   Clear
5:30 AM 21.2 °F - 19.4 °F 93% 29.95 in 7.0 mi Calm Calm - N/A   Clear
5:51 AM 19.4 °F - 17.6 °F 93% 29.95 in 10.0 mi Calm Calm - N/A   Clear
6:12 AM 19.4 °F - 17.6 °F 93% 29.95 in 10.0 mi Calm Calm - N/A   Scattered Clouds
6:36 AM 19.4 °F - 17.6 °F 93% 29.95 in 10.0 mi Calm Calm - N/A   Overcast
6:57 AM 19.4 °F - 17.6 °F 93% 29.95 in 10.0 mi Calm Calm - N/A   Overcast
7:18 AM 21.2 °F - 19.4 °F 93% 29.96 in 0.5 mi Calm Calm - N/A   Overcast
7:39 AM 21.2 °F - 19.4 °F 93% 29.97 in 7.0 mi Calm Calm - N/A   Overcast
8:00 AM 23.0 °F - 21.2 °F 93% 29.97 in 5.0 mi Calm Calm - N/A   Overcast
8:21 AM 23.0 °F - 23.0 °F 100% 29.98 in 5.0 mi Calm Calm - N/A   Overcast
9:03 AM 26.6 °F - 26.6 °F 100% 29.98 in 4.0 mi Calm Calm - N/A   Scattered Clouds
9:45 AM 28.4 °F 24.6 °F 26.6 °F 93% 29.97 in 7.0 mi East 3.5 mph - N/A   Mostly Cloudy
10:06 AM 30.2 °F 25.4 °F 26.6 °F 86% 29.96 in 10.0 mi East 4.6 mph - N/A   Overcast
10:30 AM 30.2 °F 25.4 °F 26.6 °F 86% 29.95 in 10.0 mi East 4.6 mph - N/A   Overcast
10:51 AM 30.2 °F - 24.8 °F 80% 29.95 in 10.0 mi Calm Calm - N/A   Overcast
11:12 AM 30.2 °F - 23.0 °F 75% 29.94 in 10.0 mi Calm Calm - N/A   Overcast
11:33 AM 32.0 °F - 24.8 °F 75% 29.93 in 10.0 mi Calm Calm - N/A   Overcast
11:54 AM 32.0 °F - 24.8 °F 75% 29.92 in 10.0 mi Calm Calm - N/A   Mostly Cloudy
12:15 PM 32.0 °F - 24.8 °F 75% 29.91 in 10.0 mi Calm Calm - N/A   Overcast
12:36 PM 32.0 °F - 24.8 °F 75% 29.90 in 10.0 mi Calm Calm - N/A   Mostly Cloudy
12:57 PM 32.0 °F - 24.8 °F 75% 29.89 in 10.0 mi Calm Calm - N/A   Mostly Cloudy
1:18 PM 32.0 °F - 24.8 °F 75% 29.88 in 10.0 mi Calm Calm - N/A   Mostly Cloudy
1:39 PM 33.8 °F - 26.6 °F 75% 29.87 in 10.0 mi Calm Calm - N/A   Overcast
2:00 PM 33.8 °F 30.8 °F 24.8 °F 70% 29.86 in 10.0 mi SSW 3.5 mph - N/A   Overcast
2:24 PM 33.8 °F 29.6 °F 24.8 °F 70% 29.86 in 10.0 mi SSW 4.6 mph - N/A   Overcast
2:45 PM 33.8 °F 30.8 °F 24.8 °F 70% 29.86 in 10.0 mi SW 3.5 mph - N/A   Overcast
3:06 PM 33.8 °F 27.7 °F 26.6 °F 75% 29.86 in 10.0 mi WSW 6.9 mph - N/A   Overcast
3:27 PM 32.0 °F 27.5 °F 28.4 °F 87% 29.86 in 4.0 mi WSW 4.6 mph - N/A   Overcast
3:48 PM 32.0 °F 28.7 °F 28.4 °F 87% 29.86 in 10.0 mi SSW 3.5 mph - N/A   Scattered Clouds
4:09 PM 32.0 °F 28.7 °F 28.4 °F 87% 29.86 in 7.0 mi SW 3.5 mph - N/A   Scattered Clouds
4:30 PM 32.0 °F - 28.4 °F 87% 29.86 in 10.0 mi Calm Calm - N/A   Scattered Clouds
4:51 PM 32.0 °F - 28.4 °F 87% 29.86 in 10.0 mi Calm Calm - N/A   Scattered Clouds
5:12 PM 32.0 °F - 28.4 °F 87% 29.86 in 10.0 mi Calm Calm - N/A   Scattered Clouds
5:33 PM 32.0 °F - 28.4 °F 87% 29.86 in 10.0 mi Calm Calm - N/A   Scattered Clouds
5:54 PM 30.2 °F - 28.4 °F 93% 29.86 in 10.0 mi Calm Calm - N/A   Mostly Cloudy
6:18 PM 30.2 °F 26.7 °F 28.4 °F 93% 29.86 in 10.0 mi SSW 3.5 mph - N/A   Mostly Cloudy
6:39 PM 30.2 °F - 28.4 °F 93% 29.87 in 10.0 mi Calm Calm - N/A   Scattered Clouds
7:00 PM 30.2 °F - 28.4 °F 93% 29.88 in 10.0 mi Calm Calm - N/A   Mostly Cloudy
7:21 PM 30.2 °F - 28.4 °F 93% 29.88 in 7.0 mi Calm Calm - N/A   Mostly Cloudy
7:42 PM 28.4 °F - 26.6 °F 93% 29.88 in 7.0 mi Calm Calm - N/A   Scattered Clouds
8:03 PM 28.4 °F 24.6 °F 26.6 °F 93% 29.89 in 7.0 mi SW 3.5 mph - N/A   Mostly Cloudy
8:24 PM 28.4 °F 24.6 °F 26.6 °F 93% 29.89 in 10.0 mi WSW 3.5 mph - N/A   Mostly Cloudy
9:06 PM 30.2 °F 25.4 °F 28.4 °F 93% 29.91 in 10.0 mi WSW 4.6 mph - N/A   Overcast
9:27 PM 32.0 °F 25.6 °F 28.4 °F 87% 29.91 in 10.0 mi West 6.9 mph - N/A   Overcast
9:51 PM 32.0 °F 23.6 °F 28.4 °F 87% 29.92 in 10.0 mi West 10.4 mph - N/A   Overcast
10:12 PM 32.0 °F 23.6 °F 26.6 °F 80% 29.93 in 10.0 mi West 10.4 mph - N/A   Overcast
10:33 PM 32.0 °F 23.6 °F 26.6 °F 80% 29.94 in 5.0 mi West 10.4 mph 17.3 mph N/A   Overcast
10:54 PM 32.0 °F 25.6 °F 24.8 °F 75% 29.95 in 7.0 mi WNW 6.9 mph - N/A   Overcast
11:15 PM 30.2 °F 20.8 °F 23.0 °F 75% 29.95 in 7.0 mi WNW 11.5 mph - N/A   Overcast
11:36 PM 30.2 °F 21.3 °F 23.0 °F 75% 29.96 in 10.0 mi WNW 10.4 mph - N/A   Overcast
11:57 PM 30.2 °F 20.8 °F 21.2 °F 69% 29.97 in 10.0 mi West 11.5 mph 18.4 mph N/A   Overcast